TimeCST,TemperatureF,Dew PointF,Humidity,Sea Level PressureIn,VisibilityMPH,Wind Direction,Wind SpeedMPH,Gust SpeedMPH,PrecipitationIn,Events,Conditions,WindDirDegrees,DateUTC
12:15 AM,12.9,10.2,89,30.29,-9999.0,West,5.8,-,N/A,,Unknown,270,2012-12-30 06:15:00
12:35 AM,13.3,10.8,90,30.30,-9999.0,West,6.9,-,N/A,,Unknown,260,2012-12-30 06:35:00
12:55 AM,14.4,11.5,88,30.31,-9999.0,West,8.1,-,N/A,,Unknown,260,2012-12-30 06:55:00
1:15 AM,14.0,11.3,89,30.32,-9999.0,WSW,8.1,-,N/A,,Unknown,250,2012-12-30 07:15:00
1:35 AM,13.8,10.8,88,30.33,-9999.0,WSW,4.6,-,N/A,,Unknown,250,2012-12-30 07:35:00
1:55 AM,11.3,8.6,89,30.33,-9999.0,SW,4.6,-,N/A,,Unknown,230,2012-12-30 07:55:00
2:15 AM,8.2,5.9,90,30.34,-9999.0,SW,5.8,-,N/A,,Unknown,220,2012-12-30 08:15:00
2:35 AM,9.1,6.8,90,30.35,-9999.0,SW,3.5,-,N/A,,Unknown,230,2012-12-30 08:35:00
2:55 AM,8.2,6.1,91,30.35,-9999.0,SW,3.5,-,N/A,,Unknown,230,2012-12-30 08:55:00
3:15 AM,5.7,3.0,89,30.35,-9999.0,SSW,3.5,-,N/A,,Unknown,200,2012-12-30 09:15:00
3:35 AM,5.2,2.3,88,30.36,-9999.0,Calm,Calm,-,N/A,,Unknown,0,2012-12-30 09:35:00
3:55 AM,4.3,1.6,89,30.36,-9999.0,SSW,3.5,-,N/A,,Unknown,210,2012-12-30 09:55:00
4:15 AM,5.7,3.0,89,30.36,-9999.0,SSW,3.5,-,N/A,,Unknown,200,2012-12-30 10:15:00
4:35 AM,6.8,4.1,89,30.37,-9999.0,Calm,Calm,-,N/A,,Unknown,0,2012-12-30 10:35:00
4:55 AM,5.2,2.3,88,30.37,-9999.0,SW,3.5,-,N/A,,Unknown,220,2012-12-30 10:55:00
5:15 AM,8.8,6.6,91,30.37,-9999.0,Calm,Calm,-,N/A,,Unknown,0,2012-12-30 11:15:00
5:35 AM,9.1,6.6,89,30.38,-9999.0,Calm,Calm,-,N/A,,Unknown,0,2012-12-30 11:35:00
5:55 AM,8.2,5.5,89,30.37,-9999.0,Calm,Calm,-,N/A,,Unknown,0,2012-12-30 11:55:00
6:15 AM,7.9,5.4,89,30.38,-9999.0,Calm,Calm,-,N/A,,Unknown,0,2012-12-30 12:15:00
6:35 AM,7.5,4.6,88,30.38,-9999.0,Calm,Calm,-,N/A,,Unknown,0,2012-12-30 12:35:00
6:55 AM,8.2,5.7,89,30.39,-9999.0,Calm,Calm,-,N/A,,Unknown,0,2012-12-30 12:55:00
7:15 AM,8.6,5.9,89,30.39,-9999.0,Calm,Calm,-,N/A,,Unknown,0,2012-12-30 13:15:00
7:35 AM,7.9,5.4,89,30.40,-9999.0,Calm,Calm,-,N/A,,Unknown,0,2012-12-30 13:35:00
7:55 AM,10.4,7.9,90,30.40,-9999.0,Calm,Calm,-,N/A,,Unknown,0,2012-12-30 13:55:00
8:15 AM,11.1,8.8,90,30.40,-9999.0,Calm,Calm,-,N/A,,Unknown,0,2012-12-30 14:15:00
8:35 AM,11.3,8.6,89,30.41,-9999.0,SSW,3.5,-,N/A,,Unknown,200,2012-12-30 14:35:00
8:55 AM,14.7,12.7,92,30.41,-9999.0,SSW,5.8,-,N/A,,Unknown,200,2012-12-30 14:55:00
9:15 AM,16.7,14.7,92,30.41,-9999.0,SSE,3.5,-,N/A,,Unknown,160,2012-12-30 15:15:00
9:35 AM,17.4,15.6,93,30.42,10.0,South,5.8,-,N/A,,Clear,170,2012-12-30 15:35:00
9:55 AM,19.2,17.4,93,30.43,7.0,South,3.5,-,N/A,,Clear,190,2012-12-30 15:55:00
10:15 AM,21.4,19.4,92,30.43,7.0,SSW,9.2,-,N/A,,Clear,210,2012-12-30 16:15:00
10:35 AM,23.0,18.5,83,30.43,10.0,SSW,8.1,-,N/A,,Clear,200,2012-12-30 16:35:00
10:55 AM,24.8,19.2,79,30.42,10.0,SSW,9.2,-,N/A,,Clear,200,2012-12-30 16:55:00
11:15 AM,26.4,20.1,77,30.41,10.0,SSW,6.9,-,N/A,,Clear,200,2012-12-30 17:15:00
11:35 AM,27.5,20.3,74,30.40,10.0,SSW,13.8,-,N/A,,Clear,200,2012-12-30 17:35:00
11:55 AM,28.2,20.3,72,30.39,10.0,South,9.2,-,N/A,,Clear,190,2012-12-30 17:55:00
12:15 PM,28.9,20.3,70,30.39,10.0,South,8.1,-,N/A,,Clear,190,2012-12-30 18:15:00
12:35 PM,29.3,21.0,71,30.37,10.0,South,8.1,-,N/A,,Clear,190,2012-12-30 18:35:00
12:55 PM,29.3,21.6,73,30.37,10.0,South,8.1,-,N/A,,Clear,190,2012-12-30 18:55:00
1:15 PM,30.2,21.6,70,30.36,10.0,South,8.1,-,N/A,,Clear,190,2012-12-30 19:15:00
1:35 PM,30.2,22.1,72,30.36,10.0,SSW,8.1,-,N/A,,Clear,200,2012-12-30 19:35:00
1:55 PM,29.3,21.7,73,30.35,10.0,South,9.2,-,N/A,,Clear,170,2012-12-30 19:55:00
2:15 PM,28.4,21.2,74,30.34,10.0,South,10.4,-,N/A,,Clear,180,2012-12-30 20:15:00
2:35 PM,28.2,21.4,76,30.34,10.0,South,10.4,-,N/A,,Clear,170,2012-12-30 20:35:00
2:55 PM,28.9,21.4,73,30.34,10.0,South,11.5,-,N/A,,Clear,170,2012-12-30 20:55:00
3:15 PM,29.5,22.1,74,30.34,10.0,South,12.7,-,N/A,,Clear,180,2012-12-30 21:15:00
3:35 PM,29.3,21.2,72,30.34,10.0,South,12.7,-,N/A,,Clear,180,2012-12-30 21:35:00
3:55 PM,28.9,20.7,71,30.34,10.0,South,11.5,-,N/A,,Clear,190,2012-12-30 21:55:00
4:15 PM,28.2,20.3,72,30.35,10.0,South,10.4,-,N/A,,Clear,190,2012-12-30 22:15:00
4:35 PM,27.3,20.3,75,30.35,10.0,South,11.5,-,N/A,,Clear,190,2012-12-30 22:35:00
4:55 PM,27.1,20.1,75,30.35,10.0,South,11.5,-,N/A,,Clear,190,2012-12-30 22:55:00
5:15 PM,27.0,19.9,75,30.35,10.0,South,10.4,-,N/A,,Clear,190,2012-12-30 23:15:00
5:35 PM,25.7,19.4,77,30.34,10.0,South,10.4,-,N/A,,Clear,170,2012-12-30 23:35:00
5:55 PM,25.3,19.4,78,30.34,10.0,South,9.2,-,N/A,,Clear,170,2012-12-30 23:55:00
6:15 PM,25.7,19.9,79,30.33,10.0,South,10.4,-,N/A,,Clear,170,2012-12-31 00:15:00
6:35 PM,25.9,20.5,80,30.34,10.0,South,11.5,-,N/A,,Clear,180,2012-12-31 00:35:00
6:55 PM,26.1,20.3,79,30.34,10.0,South,11.5,-,N/A,,Clear,180,2012-12-31 00:55:00
7:15 PM,24.8,19.8,81,30.33,10.0,South,12.7,-,N/A,,Clear,180,2012-12-31 01:15:00
7:35 PM,23.9,19.8,84,30.32,10.0,South,13.8,-,N/A,,Clear,170,2012-12-31 01:35:00
7:55 PM,23.9,19.6,84,30.32,10.0,South,11.5,-,N/A,,Clear,180,2012-12-31 01:55:00
8:15 PM,23.9,20.3,86,30.30,10.0,South,12.7,-,N/A,,Clear,170,2012-12-31 02:15:00
8:35 PM,24.3,20.7,86,30.29,10.0,South,13.8,-,N/A,,Clear,170,2012-12-31 02:35:00
8:55 PM,24.8,21.6,87,30.29,10.0,South,13.8,-,N/A,,Clear,180,2012-12-31 02:55:00
9:15 PM,25.7,22.1,86,30.28,10.0,South,16.1,-,N/A,,Clear,180,2012-12-31 03:15:00
9:35 PM,26.2,22.8,87,30.27,10.0,South,15.0,21.9,N/A,,Clear,180,2012-12-31 03:35:00
9:55 PM,27.0,23.0,85,30.28,10.0,South,15.0,-,N/A,,Clear,190,2012-12-31 03:55:00
10:15 PM,27.0,22.8,84,30.27,10.0,South,12.7,-,N/A,,Clear,180,2012-12-31 04:15:00
10:35 PM,27.3,23.5,86,30.26,10.0,South,11.5,-,N/A,,Clear,190,2012-12-31 04:35:00
10:55 PM,29.5,24.8,83,30.24,10.0,South,15.0,-,N/A,,Clear,190,2012-12-31 04:55:00
11:15 PM,29.8,24.8,81,30.24,10.0,South,17.3,-,N/A,,Clear,190,2012-12-31 05:15:00
11:35 PM,30.2,25.0,81,30.24,10.0,South,17.3,23.0,N/A,,Clear,190,2012-12-31 05:35:00
11:55 PM,30.2,25.3,82,30.23,10.0,South,17.3,-,N/A,,Clear,190,2012-12-31 05:55:00